Location: D�nning
(49.2479°N, 12.8491°E)
Time: 09:00:12
(UTC+00:00)

ATLAS 3B R/B - Pass Details

Date: 18 September 2020
Orbit: 1016 x 1179 km, 63.8° (Epoch: 04 October)

Event Time Altitude Azimuth Distance (km) Brightness Sun altitude
Rises 19:31:18 0° 316° (NW) 3,809 6.9 -22.0°
Reaches altitude 10° 19:34:01 10° 322° (NW) 2,872 5.9 -22.4°
Maximum altitude 19:40:33 47° 36° (NE) 1,405 3.2 -23.3°
Enters shadow 19:42:49 36° 81° (E) 1,667 3.3 -23.6°
